Home   Weather   Yellowknife   Past weeks

Flag for Canada Past Weather in Yellowknife, Northwest Territories, Canada — Yesterday and Last 2 Weeks

Now
77 °F

Scattered clouds.


Feels Like: 78 °F
Forecast: 62 / 76 °F
Wind: 17 mph from Northwest

Location: Yellowknife

Current Time: Jul 25, 2017 at 2:50:57 pm

Latest Report: Jul 25, 2017 at 2:00 pm


Visibility: 15 mi

Pressure: 29.84 "Hg

Humidity: 42%

Dew Point: 52 °F

Location of YellowknifeLocation

Past Weather in Yellowknife — Graph

°F

Yellowknife Temperature Yesterday

Maximum temperature yesterday: 81 °F (at 6:00 pm)
Minimum temperature yesterday: 52 °F (at 3:00 am)
Average temperature yesterday: 66 °F

High & Low Weather Summary for the Past Weeks

 TemperatureHumidityPressure
High81 °F (Jul 24, 6:00 pm)100% (Jul 16, 3:00 am)30.15 "Hg (Jul 16, 3:00 am)
Low41 °F (Jul 20, 5:00 am)24% (Jul 12, 5:00 pm)29.46 "Hg (Jul 16, 10:00 am)
Average62 °F54%29.87 "Hg
* Reported Jul 10 1:00 pm — Jul 25 1:00 pm, Yellowknife. Weather by CustomWeather, © 2017

Note: Actual official high and low records may vary slightly from our data, if they occured in-between our weather recording intervals... More about our weather records

Advertising

Yellowknife Weather History for the Previous 24 Hours

Scroll right to see more
 ConditionsComfort  
Time TempWeatherWind HumidityBarometerVisibility
1:00 pm
Tue, Jul 25
77 °FBroken clouds.15 mph42%29.83 "Hg15 mi
12:00 pm75 °FScattered clouds.13 mph47%29.82 "Hg15 mi
11:00 am73 °FScattered clouds.12 mph50%29.81 "Hg15 mi
10:00 am72 °FPartly sunny.13 mph57%29.81 "Hg15 mi
9:00 am70 °FPartly sunny.13 mph60%29.80 "Hg15 mi
8:00 am66 °FPartly sunny.9 mph73%29.80 "Hg15 mi
7:00 am63 °FPartly sunny.10 mph83%29.79 "Hg15 mi
6:00 am61 °FPartly sunny.9 mph88%29.79 "Hg15 mi
5:00 am59 °FPartly sunny.9 mph94%29.78 "Hg15 mi
4:40 am59 °FPartly sunny.7 mph94%29.77 "Hg15 mi
4:00 am61 °FSprinkles. Passing clouds.8 mph88%29.77 "Hg15 mi
3:00 am63 °FSprinkles. Mostly cloudy.13 mph77%29.76 "Hg15 mi
2:51 am64 °FSprinkles. Overcast.14 mph73%29.76 "Hg15 mi
2:00 am64 °FFog.7 mph68%29.76 "Hg15 mi
1:00 am66 °FFog.8 mph68%29.75 "Hg15 mi
12:00 am66 °FOvercast.5 mph64%29.75 "Hg15 mi
11:00 pm
Mon, Jul 24
68 °FSprinkles. Mostly cloudy.7 mph69%29.75 "Hg15 mi
10:00 pm66 °FSprinkles. Mostly cloudy.7 mph78%29.73 "Hg15 mi
9:00 pm72 °FSprinkles. Cloudy.5 mph57%29.74 "Hg15 mi
8:35 pm73 °FSprinkles. Partly sunny.6 mph47%29.73 "Hg15 mi
8:00 pm75 °FBroken clouds.No wind41%29.73 "Hg15 mi
7:00 pm79 °FBroken clouds.6 mph34%29.73 "Hg15 mi
6:00 pm81 °FPartly sunny.12 mph32%29.73 "Hg15 mi
5:00 pm79 °FBroken clouds.8 mph34%29.73 "Hg15 mi
4:00 pm79 °FBroken clouds.10 mph34%29.74 "Hg15 mi
3:00 pm79 °FBroken clouds.16 mph30%29.74 "Hg15 mi
2:00 pm77 °FBroken clouds.9 mph34%29.75 "Hg15 mi
Weather by CustomWeather, © 2017

See weather overviewHow to use our weather pages